[[{"header":{"parameterUnit":"m.s-1","parameterCategory":2,"la1":30.2991,"la2":30.254,"lo1":-89.0895,"lo2":-89.0444,"dy":0.0017,"dx":0.0017,"nx":28,"ny":28,"refTime":"2024-08-14T09:00:00:Z","depth":"0","parameterNumber":2,"parameterNumberName":"U-component_of_CURRENTS"},"data":[0,0,0,0,0,0,0,0,0,0,0,0,0,0,0,0,0,0,0,0,0,0,0,0,0,0,0,0,0,0,0,0,0,0,0,0,0,0,0,0,0,0,0,0,0,0,0,0,0,0,0,0,0,0,0,0,0,0,0.3519,0.3519,0,0.3477,0.3476,0.3475,0.3417,0.3416,0.3416,0.3415,0.3352,0.3351,0.335,0,0,0,0,0,0,0,0,0,0,0,0,0,0.3533,0.3533,0.3519,0.3519,0.3519,0.3477,0.3476,0.3475,0.3417,0.3416,0.3415,0.3415,0.3352,0.3351,0.335,0,0,0,0,0,0,0,0,0,0,0,0,0,0.3508,0.3533,0.3519,0.3488,0.3485,0.3477,0.3476,0.3475,0.3417,0.3416,0.3415,0.3414,0.3353,0.3351,0.3349,0.3357,0,0,0.3344,0.3344,0,0,0,0,0,0,0,0,0.351,0.3507,0.3492,0.349,0.3487,0.3455,0.3458,0.3436,0.3417,0.3438,0.3415,0.3414,0.3388,0.3383,0.3372,0.3354,0.3351,0.3344,0.3343,0.3342,0.3342,0,0,0,0,0,0,0,0.3512,0.3509,0.3498,0.3493,0.3489,0.3471,0.3466,0.3453,0.3415,0.3436,0.3433,0.3436,0.3385,0.3373,0.337,0.335,0.3344,0.3343,0.3342,0.3341,0.3395,0.3397,0,0,0,0,0,0,0.3527,0.3511,0.3499,0.3497,0.3501,0.3472,0.3466,0.3462,0.3415,0.3409,0.3436,0.3433,0.3377,0.3372,0.3367,0.3418,0.3342,0.3341,0.334,0.3392,0.3395,0.3398,0,0,0,0,0,0,0.3528,0.3527,0.3501,0.3506,0.3502,0.3473,0.3469,0.3462,0.3456,0.3416,0.3408,0.3438,0.3376,0.337,0.3372,0.3413,0.334,0.3339,0.3389,0.3393,0.3396,0.3491,0,0,0,0,0,0,0.3528,0.3527,0.3532,0.3508,0.3503,0.3511,0.347,0.3462,0.346,0.3456,0.3416,0.3408,0.3375,0.3375,0.3371,0.341,0.3337,0.3386,0.3391,0.3395,0.3485,0.3498,0.3509,0,0,0,0,0,0.3529,0.3535,0.3532,0.3531,0.351,0.3513,0.3509,0.3481,0.3462,0.3469,0.3445,0.341,0.3402,0.3376,0.337,0.3409,0.3384,0.339,0.3395,0.348,0.3495,0.3508,0,0,0,0,0,0,0.3539,0.353,0.3525,0.3527,0.3531,0.3505,0.3507,0.3493,0.3479,0.3473,0.343,0.3422,0.3447,0.3418,0.3391,0.3442,0.3392,0.3396,0.3459,0.3473,0.3484,0.3488,0.3336,0,0,0,0,0,0.3548,0.3551,0.3546,0.3551,0.3555,0.3536,0.3534,0.3522,0.3507,0.3499,0.3474,0.3459,0.3466,0.3459,0.3456,0.3473,0.3507,0.35,0.3512,0.3522,0.3524,0.3623,0.3644,0.3416,0.3416,0.3416,0,0,0.3552,0.3551,0.355,0.3555,0.355,0.3559,0.3531,0.3539,0.3545,0.3496,0.3497,0.3499,0.3482,0.3509,0.3517,0.3486,0.3615,0.3529,0.3537,0.3533,0.3631,0.3653,0.3673,0.3419,0.3419,0.3418,0,0,0.3561,0.3565,0.357,0.358,0.359,0.3584,0.3593,0.3584,0.3579,0.359,0.3571,0.3603,0.3582,0.3595,0.3595,0.3672,0.368,0.3672,0.3723,0.382,0.384,0.3857,0.3972,0.3999,0.3671,0.3671,0.3671,0,0.3567,0.3571,0.3575,0.3589,0.3596,0.3599,0.361,0.3615,0.3609,0.3618,0.3602,0.3638,0.3628,0.368,0.3708,0.3699,0.3758,0.3667,0.3837,0.3854,0.3871,0.3983,0.4012,0.3676,0.3675,0.3675,0.3674,0,0.358,0.3589,0.3598,0.3613,0.3627,0.3641,0.3654,0.3674,0.3675,0.3677,0.3733,0.3743,0.3765,0.3782,0.3761,0.3874,0.3884,0.3848,0.38,0.39,0.4012,0.404,0.3684,0.3682,0.368,0.3679,0,0,0.3573,0.3598,0.3602,0.3609,0.364,0.3648,0.3685,0.3714,0.3742,0.3766,0.3812,0.3856,0.3877,0.3882,0.3891,0.3967,0.4151,0.3957,0.3959,0.4071,0.4395,0.4405,0.4436,0.4147,0.4151,0.4155,0.4443,0,0.3579,0.3597,0.3615,0.3638,0.3646,0.3676,0.371,0.3744,0.3774,0.3824,0.3874,0.392,0.391,0.3943,0.4027,0.4102,0.4222,0.4077,0.4281,0.4288,0.4284,0.4467,0.4359,0.4606,0.447,0.4475,0.4478,0,0.3584,0.3594,0.361,0.3644,0.3653,0.3672,0.3732,0.3763,0.3843,0.3878,0.3952,0.3985,0.4105,0.4083,0.4306,0.4215,0.4328,0.4395,0.4407,0.4394,0.4348,0.4477,0.4661,0.446,0.4521,0.4517,0.4514,0,0.3563,0.3592,0.3599,0.361,0.3653,0.3673,0.3701,0.3773,0.3808,0.3919,0.3971,0.41,0.4183,0.4326,0.4472,0.4405,0.4729,0.4649,0.4783,0.4785,0.4721,0.4709,0.4728,0.4857,0.4856,0.4855,0.4855,0,0.3559,0.3566,0.3586,0.359,0.3609,0.3651,0.369,0.3749,0.3839,0.3901,0.3996,0.4086,0.4251,0.4431,0.4544,0.4776,0.4809,0.4848,0.4877,0.4755,0.4744,0.4582,0.4465,0.4866,0.4864,0.4862,0.486,0,0.3531,0.3549,0.3551,0.3583,0.3595,0.3604,0.366,0.3696,0.3799,0.3895,0.3938,0.4122,0.4354,0.4544,0.4809,0.4885,0.4957,0.5163,0.5022,0.5028,0.4893,0.4787,0.4751,0.4628,0.5341,0.5343,0.5345,0,0.3515,0.3512,0.3526,0.3516,0.3524,0.3544,0.3566,0.3663,0.3713,0.3909,0.3962,0.4213,0.4372,0.4777,0.4991,0.5264,0.5059,0.5309,0.5149,0.4924,0.4828,0.4608,0.4487,0.5128,0.5128,0.5128,0.5128,0,0.3466,0.3469,0.3467,0.3455,0.3459,0.3469,0.3514,0.355,0.3688,0.3799,0.3975,0.4115,0.4515,0.4732,0.5101,0.5245,0.5021,0.5315,0.5118,0.4713,0.4441,0.4321,0.4904,0.5127,0.5128,0.5128,0.5128,0.5128,0.3412,0.3397,0.3388,0.3372,0.3375,0.3378,0.336,0.3448,0.3537,0.3686,0.3903,0.4084,0.4449,0.4926,0.5062,0.5144,0.5045,0.502,0.4939,0.4758,0.453,0.5127,0.5338,0.534,0.5341,0.5342,0.5342,0,0.3313,0.3311,0.3299,0.3267,0.323,0.3272,0.3305,0.3288,0.3353,0.3576,0.374,0.4061,0.4322,0.4595,0.4856,0.4772,0.4599,0.4625,0.4253,0.4175,0.4768,0.4642,0.4664,0.4664,0.4664,0.4664,0.4665,0.4665,0.3256,0.3212,0.3213,0.3122,0.3098,0.3037,0.303,0.3052,0.3162,0.3311,0.3462,0.366,0.4,0.4304,0.4348,0.4321,0.3967,0.3863,0.3769,0.4125,0.4151,0.4176,0.4027,0.392,0.392,0.3054,0.3047,0.3042]},{"header":{"parameterUnit":"m.s-1","parameterCategory":2,"la1":30.2991,"la2":30.254,"lo1":-89.0895,"lo2":-89.0444,"dy":0.0017,"dx":0.0017,"nx":28,"ny":28,"refTime":"2024-08-14T09:00:00:Z","depth":"0","parameterNumber":3,"parameterNumberName":"V-component_of_CURRENTS"},"data":[0,0,0,0,0,0,0,0,0,0,0,0,0,0,0,0,0,0,0,0,0,0,0,0,0,0,0,0,0,0,0,0,0,0,0,0,0,0,0,0,0,0,0,0,0,0,0,0,0,0,0,0,0,0,0,0,0,0,-0.1018,-0.1019,0,-0.1091,-0.1092,-0.1093,-0.1174,-0.1176,-0.1177,-0.1178,-0.1275,-0.1276,-0.1277,0,0,0,0,0,0,0,0,0,0,0,0,0,-0.0967,-0.0967,-0.1018,-0.1019,-0.102,-0.1091,-0.1092,-0.1093,-0.1174,-0.1176,-0.1177,-0.1179,-0.1274,-0.1276,-0.1277,0,0,0,0,0,0,0,0,0,0,0,0,0,-0.1008,-0.0967,-0.1018,-0.107,-0.1076,-0.1091,-0.1092,-0.1093,-0.1174,-0.1176,-0.1178,-0.118,-0.1274,-0.1276,-0.1278,-0.125,0,0,-0.1284,-0.1285,0,0,0,0,0,0,0,0,-0.1005,-0.1009,-0.1062,-0.1067,-0.1073,-0.1127,-0.1109,-0.1147,-0.1173,-0.1135,-0.1178,-0.1181,-0.1227,-0.1233,-0.124,-0.1255,-0.1259,-0.1284,-0.1285,-0.1286,-0.1287,0,0,0,0,0,0,0,-0.1002,-0.1007,-0.1046,-0.1063,-0.107,-0.1096,-0.1104,-0.1117,-0.1168,-0.1139,-0.1145,-0.1155,-0.123,-0.1238,-0.1243,-0.126,-0.1284,-0.1286,-0.1287,-0.1288,-0.1236,-0.1234,0,0,0,0,0,0,-0.0993,-0.1004,-0.1043,-0.1048,-0.1045,-0.1096,-0.1104,-0.1106,-0.1168,-0.1179,-0.1153,-0.1158,-0.1233,-0.124,-0.1247,-0.118,-0.1286,-0.1288,-0.1289,-0.1239,-0.1236,-0.1233,0,0,0,0,0,0,-0.0991,-0.0995,-0.104,-0.1029,-0.1037,-0.1094,-0.1096,-0.1107,-0.1115,-0.1179,-0.1191,-0.1151,-0.1235,-0.1244,-0.1235,-0.1186,-0.1289,-0.1291,-0.1242,-0.1238,-0.1234,-0.1071,0,0,0,0,0,0,-0.0989,-0.0994,-0.098,-0.1028,-0.1038,-0.1028,-0.1095,-0.1107,-0.1119,-0.1126,-0.118,-0.1192,-0.1237,-0.1231,-0.1237,-0.1191,-0.1292,-0.1245,-0.124,-0.1235,-0.1079,-0.1062,-0.1046,0,0,0,0,0,-0.0987,-0.0956,-0.0978,-0.0983,-0.102,-0.1026,-0.1032,-0.108,-0.1116,-0.1098,-0.1133,-0.119,-0.1205,-0.123,-0.1237,-0.1191,-0.1247,-0.1241,-0.1236,-0.1086,-0.1065,-0.1047,0,0,0,0,0,0,-0.0921,-0.0963,-0.0989,-0.0971,-0.099,-0.104,-0.1027,-0.1065,-0.1078,-0.1085,-0.1154,-0.1165,-0.1141,-0.1183,-0.1209,-0.1161,-0.1236,-0.1232,-0.112,-0.1101,-0.1085,-0.1047,-0.1294,0,0,0,0,0,-0.09,-0.089,-0.0934,-0.0916,-0.0921,-0.0971,-0.0978,-0.1009,-0.1035,-0.1045,-0.108,-0.1111,-0.1119,-0.1125,-0.1142,-0.111,-0.1133,-0.1086,-0.107,-0.1055,-0.1028,-0.1023,-0.1003,-0.1214,-0.1214,-0.1214,0,0,-0.0871,-0.089,-0.0886,-0.0901,-0.0921,-0.0896,-0.0979,-0.0974,-0.0948,-0.105,-0.1013,-0.1054,-0.1098,-0.1064,-0.1057,-0.1095,-0.1002,-0.1048,-0.1036,-0.1016,-0.1015,-0.0994,-0.0976,-0.121,-0.1211,-0.1211,0,0,-0.0802,-0.0821,-0.079,-0.0792,-0.081,-0.0831,-0.0824,-0.0859,-0.0867,-0.084,-0.0904,-0.0903,-0.0923,-0.0936,-0.0948,-0.0847,-0.0917,-0.0866,-0.075,-0.0745,-0.0727,-0.0712,-0.0693,-0.0677,-0.0857,-0.0856,-0.0856,0,-0.0767,-0.0735,-0.0778,-0.0742,-0.0728,-0.0793,-0.0745,-0.0749,-0.0773,-0.076,-0.0804,-0.0805,-0.0852,-0.0803,-0.0775,-0.0807,-0.082,-0.0822,-0.0722,-0.0708,-0.0695,-0.068,-0.0665,-0.0848,-0.0849,-0.085,-0.0851,0,-0.0681,-0.0646,-0.0621,-0.0598,-0.0582,-0.0549,-0.0565,-0.0545,-0.0567,-0.058,-0.0541,-0.0591,-0.0596,-0.0609,-0.0664,-0.0594,-0.0635,-0.0703,-0.077,-0.0664,-0.0654,-0.0642,-0.0836,-0.0839,-0.0841,-0.0843,0,0,-0.0628,-0.0573,-0.0563,-0.052,-0.0502,-0.0479,-0.0417,-0.0382,-0.0338,-0.0351,-0.0286,-0.0306,-0.0352,-0.0368,-0.0434,-0.0429,-0.0356,-0.052,-0.0524,-0.0495,-0.0329,-0.0345,-0.0334,-0.0416,-0.0414,-0.0412,-0.035,0,-0.0548,-0.0448,-0.0442,-0.0332,-0.028,-0.0292,-0.0226,-0.0201,-0.0196,-0.0146,-0.0181,-0.0155,-0.0256,-0.0258,-0.026,-0.0341,-0.0319,-0.0365,-0.0441,-0.0442,-0.0465,-0.0319,-0.0293,-0.0235,-0.0339,-0.0337,-0.0335,0,-0.0467,-0.0409,-0.0292,-0.0195,-0.0173,-0.0114,-0.0026,0.0023,0.0067,0.0072,0.0092,0.0043,0.0063,-0.0049,-0.0084,-0.0115,-0.0193,-0.0254,-0.0255,-0.0317,-0.0434,-0.0363,-0.021,-0.046,-0.0317,-0.0319,-0.032,0,-0.0408,-0.03,-0.02,-0.0168,-0.0074,-0.0015,0.0035,0.0091,0.0152,0.0208,0.0256,0.0245,0.0256,0.0169,0.0037,-0.0025,-0.0002,-0.0115,-0.0185,-0.0188,-0.02,-0.0209,-0.0292,-0.0111,-0.0111,-0.0111,-0.0112,0,-0.0324,-0.0242,-0.0163,-0.0104,0.0023,0.006,0.0188,0.0229,0.0313,0.0422,0.0368,0.0456,0.0308,0.0285,0.0136,0.0043,0.0077,-0.0112,-0.0154,-0.0141,-0.0145,-0.0397,-0.0543,-0.0109,-0.011,-0.011,-0.011,0,-0.0264,-0.0217,-0.0095,0.0017,0.0056,0.0147,0.028,0.0373,0.0432,0.0578,0.0606,0.0633,0.0619,0.0474,0.0355,0.019,-0.0031,0.0032,0.0069,0.003,-0.0304,-0.044,-0.0507,-0.0589,-0.0029,-0.0029,-0.0029,0,-0.0216,-0.0151,-0.0016,0.0062,0.012,0.0246,0.0341,0.0425,0.0532,0.0701,0.0793,0.083,0.0892,0.073,0.0475,0.027,0.0031,0.0105,-0.0014,-0.0266,-0.045,-0.0537,-0.0609,0.0041,0.0042,0.0043,0.0043,0,-0.0122,-0.0085,0.0009,0.0159,0.0272,0.0407,0.0551,0.0653,0.0783,0.0928,0.1117,0.1185,0.1051,0.09,0.0603,0.0407,-0.0056,0.0108,-0.0156,-0.0377,-0.0469,-0.0588,-0.0064,0.0049,0.0048,0.0048,0.0048,0.0047,-0.0055,0.0022,0.0137,0.0279,0.041,0.0583,0.0721,0.0891,0.1104,0.1386,0.1393,0.1591,0.1259,0.0884,0.0569,-0.0014,-0.0015,-0.022,-0.0351,-0.0406,-0.052,0.0028,0.0077,0.0077,0.0077,0.0076,0.0076,0,0.0041,0.0123,0.0259,0.0443,0.0605,0.065,0.088,0.1047,0.1336,0.162,0.182,0.1805,0.1378,0.086,0.0087,-0.0385,-0.0562,-0.0658,-0.0799,-0.0843,-0.0351,-0.0389,-0.0434,-0.0434,-0.0434,-0.0433,-0.0433,-0.0433,0.0103,0.0238,0.0303,0.0579,0.0716,0.0951,0.1096,0.1355,0.1596,0.1994,0.2189,0.2277,0.1838,0.0384,-0.0665,-0.0919,-0.1245,-0.1278,-0.146,-0.1192,-0.1163,-0.1135,-0.1208,-0.1423,-0.1424,-0.1877,-0.1882,-0.1886]}],[{"header":{"parameterUnit":"m.s-1","parameterCategory":2,"la1":30.2991,"la2":30.254,"lo1":-89.0895,"lo2":-89.0444,"dy":0.0017,"dx":0.0017,"nx":28,"ny":28,"refTime":"2024-08-14T09:00:00:Z","depth":"2","parameterNumber":2,"parameterNumberName":"U-component_of_CURRENTS"},"data":[0,0,0,0,0,0,0,0,0,0,0,0,0,0,0,0,0,0,0,0,0,0,0,0,0,0,0,0,0,0,0,0,0,0,0,0,0,0,0,0,0,0,0,0,0,0,0,0,0,0,0,0,0,0,0,0,0,0,0.2818,0.282,0,0.2954,0.2955,0.2957,0.2995,0.2995,0.2994,0.2994,0.3108,0.3112,0.3115,0,0,0,0,0,0,0,0,0,0,0,0,0,0.2612,0.2615,0.2818,0.282,0.2822,0.2954,0.2955,0.2957,0.2996,0.2995,0.2994,0.2994,0.3107,0.3111,0.3116,0,0,0,0,0,0,0,0,0,0,0,0,0,0.2718,0.2616,0.2818,0.2859,0.2864,0.2953,0.2955,0.2957,0.2996,0.2995,0.2994,0.2993,0.3106,0.3111,0.3116,0.3165,0,0,0.3132,0.3135,0,0,0,0,0,0,0,0,0.2712,0.2725,0.2851,0.2856,0.2862,0.2959,0.2925,0.3027,0.2996,0.2943,0.2994,0.2993,0.3058,0.3068,0.3092,0.3171,0.3175,0.3133,0.3136,0.3138,0.314,0,0,0,0,0,0,0,0.2704,0.2719,0.287,0.2853,0.286,0.2877,0.2891,0.2944,0.3002,0.2948,0.2952,0.297,0.3061,0.3087,0.3095,0.3177,0.3133,0.3137,0.3141,0.3143,0.3341,0.3343,0,0,0,0,0,0,0.2692,0.2713,0.2865,0.2874,0.2786,0.2881,0.2897,0.2927,0.3002,0.3013,0.2971,0.2972,0.3078,0.3089,0.3099,0.318,0.3138,0.3143,0.3146,0.3339,0.3341,0.3343,0,0,0,0,0,0,0.2688,0.2705,0.286,0.2797,0.2818,0.2886,0.2919,0.293,0.2956,0.302,0.303,0.2986,0.3078,0.3092,0.3165,0.3183,0.3146,0.3151,0.3336,0.3339,0.3342,0.3329,0,0,0,0,0,0,0.2681,0.2703,0.2728,0.2797,0.2821,0.2913,0.2921,0.2933,0.297,0.2972,0.3037,0.3047,0.3078,0.3157,0.317,0.319,0.3155,0.3334,0.3338,0.3341,0.3327,0.3331,0.3335,0,0,0,0,0,0.2674,0.27,0.2729,0.2748,0.2852,0.2914,0.2928,0.2971,0.2971,0.299,0.3043,0.3044,0.319,0.3163,0.3178,0.32,0.3332,0.3336,0.3341,0.3325,0.333,0.3335,0,0,0,0,0,0,0.2629,0.2709,0.2741,0.2794,0.2854,0.2922,0.2944,0.2972,0.3028,0.3032,0.3076,0.3092,0.3169,0.3191,0.316,0.3272,0.326,0.3267,0.3242,0.3248,0.3252,0.3243,0.3159,0,0,0,0,0,0.2633,0.2668,0.275,0.2793,0.2819,0.2883,0.2915,0.2949,0.3005,0.3028,0.3072,0.313,0.3203,0.3227,0.3294,0.3348,0.3412,0.3373,0.3377,0.338,0.3386,0.3508,0.3523,0.3359,0.3359,0.3359,0,0,0.2624,0.2677,0.2697,0.2785,0.283,0.2882,0.2899,0.295,0.2996,0.3034,0.3098,0.3155,0.3227,0.33,0.3333,0.3314,0.3466,0.3386,0.3388,0.3393,0.3514,0.353,0.3545,0.3362,0.3361,0.3361,0,0,0.2619,0.2674,0.2701,0.2754,0.2832,0.2879,0.2892,0.2966,0.2999,0.3077,0.3124,0.3191,0.3279,0.3337,0.3378,0.3446,0.3497,0.346,0.3457,0.3575,0.3589,0.3602,0.3719,0.3743,0.3445,0.3445,0.3445,0,0.2608,0.2665,0.2718,0.2764,0.2808,0.2874,0.2916,0.2971,0.306,0.31,0.3095,0.326,0.3302,0.3412,0.3427,0.3453,0.3531,0.3425,0.3579,0.3593,0.3607,0.3724,0.375,0.3445,0.3445,0.3445,0.3445,0,0.2627,0.2681,0.2697,0.2781,0.2834,0.288,0.2965,0.302,0.3062,0.312,0.3232,0.3304,0.3399,0.3417,0.3437,0.3555,0.3584,0.3581,0.3558,0.3623,0.3742,0.377,0.3445,0.3445,0.3445,0.3445,0,0,0.2584,0.2689,0.2698,0.2742,0.2848,0.2892,0.2975,0.3073,0.3137,0.3212,0.3303,0.3398,0.3434,0.3484,0.3525,0.3597,0.375,0.3615,0.3621,0.3718,0.4027,0.3747,0.3751,0.3776,0.378,0.3783,0.4076,0,0.2586,0.2657,0.2717,0.2794,0.2839,0.293,0.3006,0.3104,0.3184,0.329,0.3375,0.3485,0.3464,0.3521,0.3591,0.3733,0.382,0.3672,0.3962,0.3971,0.3703,0.3771,0.3449,0.3654,0.4104,0.4108,0.4112,0,0.2594,0.2641,0.2707,0.2815,0.2842,0.2901,0.3036,0.3115,0.3275,0.3345,0.3455,0.3539,0.3684,0.3647,0.3902,0.3814,0.3917,0.4,0.4014,0.3771,0.374,0.3663,0.3688,0.4158,0.4155,0.4151,0.4148,0,0.2543,0.2639,0.2687,0.2726,0.2856,0.2905,0.2979,0.3126,0.3205,0.3395,0.3474,0.3656,0.376,0.3925,0.406,0.4021,0.4329,0.431,0.4164,0.4149,0.3936,0.3889,0.4493,0.4492,0.4491,0.4491,0.449,0,0.2536,0.2578,0.2666,0.27,0.2766,0.287,0.2967,0.3074,0.3234,0.3345,0.3492,0.3617,0.383,0.4008,0.4134,0.4215,0.4405,0.4178,0.4198,0.3918,0.3869,0.4343,0.4322,0.4502,0.4499,0.4497,0.4495,0,0.2497,0.2556,0.2611,0.2716,0.2749,0.2798,0.2938,0.3013,0.3173,0.3329,0.3399,0.3638,0.3867,0.4047,0.4337,0.4268,0.4415,0.4398,0.4033,0.3996,0.4156,0.4131,0.4293,0.4286,0.4279,0.4274,0.4269,0,0.2494,0.2516,0.2594,0.2615,0.2663,0.2745,0.2808,0.2971,0.3058,0.3337,0.3411,0.3663,0.3832,0.4095,0.4047,0.4185,0.4364,0.3909,0.3717,0.4128,0.4134,0.412,0.4104,0.3495,0.3485,0.3476,0.3469,0,0.2477,0.2494,0.2526,0.2555,0.2603,0.266,0.2761,0.2823,0.3036,0.3195,0.344,0.3607,0.3749,0.3686,0.3711,0.3744,0.3839,0.3722,0.4341,0.351,0.3374,0.3379,0.3393,0.3393,0.3401,0.3406,0.341,0.3413,0.2453,0.2445,0.2466,0.2493,0.2529,0.2561,0.2607,0.2729,0.2874,0.3024,0.3287,0.3378,0.3364,0.3193,0.3177,0.3106,0.334,0.3235,0.3266,0.3304,0.3073,0.2923,0.282,0.2824,0.2828,0.2831,0.2834,0,0.2421,0.2404,0.2409,0.2418,0.2412,0.2476,0.2569,0.2595,0.2736,0.2791,0.296,0.271,0.2644,0.2709,0.2437,0.238,0.2409,0.2355,0.2404,0.2478,0.2545,0.2278,0.1814,0.1812,0.1809,0.1807,0,0,0.2403,0.2371,0.2357,0.2308,0.2321,0.233,0.238,0.242,0.2448,0.2375,0.2317,0.2399,0.253,0.2073,0.2034,0.1912,0.219,0.1842,0.2652,0.2781,0.2844,0.3032,0.2699,0,0,0,0,0]},{"header":{"parameterUnit":"m.s-1","parameterCategory":2,"la1":30.2991,"la2":30.254,"lo1":-89.0895,"lo2":-89.0444,"dy":0.0017,"dx":0.0017,"nx":28,"ny":28,"refTime":"2024-08-14T09:00:00:Z","depth":"2","parameterNumber":3,"parameterNumberName":"V-component_of_CURRENTS"},"data":[0,0,0,0,0,0,0,0,0,0,0,0,0,0,0,0,0,0,0,0,0,0,0,0,0,0,0,0,0,0,0,0,0,0,0,0,0,0,0,0,0,0,0,0,0,0,0,0,0,0,0,0,0,0,0,0,0,0,0.0609,0.0608,0,0.0526,0.0525,0.0524,0.0426,0.0424,0.0423,0.0421,0.0295,0.0293,0.0291,0,0,0,0,0,0,0,0,0,0,0,0,0,0.0625,0.0625,0.0609,0.0608,0.0607,0.0526,0.0525,0.0524,0.0426,0.0424,0.0422,0.0421,0.0296,0.0293,0.0291,0,0,0,0,0,0,0,0,0,0,0,0,0,0.0588,0.0626,0.0609,0.0549,0.0542,0.0526,0.0525,0.0523,0.0426,0.0424,0.0422,0.042,0.0296,0.0293,0.0291,0.0317,0,0,0.0281,0.028,0,0,0,0,0,0,0,0,0.059,0.0587,0.0558,0.0553,0.0546,0.0484,0.0484,0.0452,0.0427,0.047,0.0421,0.0419,0.0356,0.0348,0.0338,0.0311,0.0306,0.0281,0.0279,0.0278,0.0277,0,0,0,0,0,0,0,0.0593,0.059,0.0576,0.0558,0.055,0.0506,0.0498,0.0477,0.0426,0.0466,0.0459,0.0451,0.0352,0.0341,0.0334,0.0304,0.0281,0.0279,0.0277,0.0276,0.0238,0.0239,0,0,0,0,0,0,0.0609,0.0593,0.0578,0.0573,0.0563,0.0508,0.0499,0.0506,0.0427,0.0413,0.0453,0.0447,0.0347,0.0337,0.0329,0.0301,0.0278,0.0275,0.0274,0.0237,0.0238,0.0239,0,0,0,0,0,0,0.061,0.0609,0.0582,0.058,0.0573,0.051,0.0518,0.0506,0.0481,0.0417,0.0402,0.044,0.0345,0.0333,0.0311,0.0297,0.0274,0.0271,0.0236,0.0237,0.0238,0.028,0,0,0,0,0,0,0.0611,0.0611,0.0623,0.0582,0.0574,0.0579,0.052,0.0506,0.048,0.0471,0.0401,0.0388,0.0342,0.0316,0.0308,0.0293,0.0269,0.0235,0.0237,0.0238,0.0278,0.0283,0.0287,0,0,0,0,0,0.0612,0.0644,0.0625,0.0623,0.0594,0.058,0.0572,0.0518,0.0482,0.0485,0.0436,0.0389,0.0318,0.0315,0.0305,0.0289,0.0234,0.0236,0.0238,0.0276,0.0282,0.0287,0,0,0,0,0,0,0.0659,0.0636,0.0614,0.0637,0.0611,0.0563,0.056,0.0525,0.049,0.0473,0.0409,0.0393,0.0367,0.0336,0.0333,0.0285,0.0265,0.0265,0.0298,0.0303,0.0307,0.0293,0.0267,0,0,0,0,0,0.0678,0.0694,0.0658,0.0677,0.0664,0.0613,0.0599,0.0564,0.0526,0.0506,0.0454,0.0404,0.0372,0.0344,0.0315,0.0297,0.0263,0.0279,0.0283,0.0287,0.0271,0.022,0.0217,0.0245,0.0244,0.0244,0,0,0.0701,0.0691,0.0698,0.0687,0.0657,0.0655,0.0599,0.0582,0.057,0.0502,0.0467,0.0425,0.0376,0.0348,0.0332,0.0314,0.027,0.0289,0.0293,0.0274,0.0221,0.0218,0.0215,0.0246,0.0245,0.0245,0,0,0.0751,0.0743,0.0765,0.075,0.0717,0.0689,0.0687,0.0636,0.0599,0.0572,0.0517,0.0472,0.0419,0.0374,0.0347,0.0365,0.0305,0.0351,0.0346,0.0298,0.0295,0.0291,0.0278,0.0273,0.0342,0.0342,0.0342,0,0.0773,0.0798,0.0769,0.078,0.0769,0.0708,0.0718,0.0685,0.063,0.0597,0.0566,0.0466,0.0428,0.0381,0.0375,0.0371,0.0341,0.0328,0.0302,0.0297,0.0293,0.028,0.0274,0.0344,0.0344,0.0344,0.0344,0,0.0833,0.0845,0.0855,0.0849,0.0839,0.0838,0.0789,0.0765,0.0707,0.0651,0.0583,0.052,0.0451,0.0434,0.0401,0.035,0.0341,0.0322,0.0284,0.0292,0.0279,0.0272,0.0348,0.0347,0.0346,0.0346,0,0,0.088,0.0895,0.0892,0.0896,0.087,0.0866,0.0852,0.0807,0.0786,0.0695,0.0652,0.0562,0.0492,0.0459,0.0407,0.0349,0.0306,0.0312,0.0308,0.0293,0.0213,0.0166,0.0153,0.027,0.0268,0.0266,0.0229,0,0.0921,0.0965,0.0956,0.0979,0.0988,0.094,0.0936,0.0886,0.0823,0.0772,0.0656,0.0601,0.0513,0.0481,0.0402,0.0347,0.0282,0.0319,0.0212,0.021,0.0159,0.0141,0.0108,0.0066,0.0221,0.022,0.0219,0,0.0966,0.0988,0.1023,0.1036,0.1033,0.1027,0.0996,0.0986,0.0901,0.0851,0.0744,0.0664,0.0565,0.0498,0.0346,0.0369,0.028,0.0221,0.0218,0.0143,0.0146,0.0076,0.0046,0.0206,0.0207,0.0208,0.0209,0,0.1001,0.1029,0.1057,0.1059,0.1065,0.105,0.1038,0.098,0.0976,0.0887,0.0876,0.0724,0.0677,0.0523,0.0387,0.0359,0.0239,0.02,0.0068,0.0067,0.0001,-0.0005,0.007,0.007,0.0071,0.0071,0.0071,0,0.1049,0.1063,0.1063,0.1077,0.1094,0.1074,0.1075,0.105,0.1018,0.1024,0.09,0.0896,0.0674,0.058,0.0423,0.0235,0.0264,0.0053,0.0036,0.002,0.0017,0.0101,0.0105,0.0069,0.007,0.007,0.007,0,0.1078,0.1086,0.1116,0.1119,0.1111,0.1113,0.1113,0.1129,0.1095,0.111,0.1091,0.1017,0.091,0.071,0.051,0.0306,0.0133,0.0059,0.0071,0.0052,-0.0018,-0.0011,-0.0117,-0.012,-0.0122,-0.0123,-0.0125,0,0.1093,0.1113,0.1141,0.1157,0.1144,0.1144,0.1163,0.115,0.1182,0.1199,0.1229,0.1145,0.1125,0.0825,0.0449,0.0155,0.0164,-0.0084,-0.0174,-0.0041,-0.0046,-0.0035,-0.0026,-0.0218,-0.022,-0.0222,-0.0223,0,0.1115,0.1123,0.116,0.1198,0.121,0.1252,0.1269,0.1322,0.1337,0.1398,0.1478,0.1476,0.1154,0.0825,0.0387,0.0179,-0.005,-0.0132,0.0003,-0.0171,-0.0142,-0.0144,-0.0131,-0.0238,-0.0237,-0.0235,-0.0235,-0.0234,0.1115,0.1147,0.1197,0.1232,0.1266,0.1338,0.1384,0.1482,0.1593,0.1649,0.1645,0.1589,0.1162,0.0557,0.0231,-0.0156,-0.0152,-0.0317,-0.0309,-0.03,-0.0312,-0.0289,-0.0411,-0.0411,-0.041,-0.041,-0.041,0,0.1107,0.1153,0.1217,0.1274,0.1332,0.1329,0.1443,0.155,0.1729,0.1725,0.1771,0.1346,0.0974,0.0569,-0.0066,-0.0422,-0.0428,-0.0475,-0.0427,-0.0413,-0.04,-0.0414,-0.0542,-0.0543,-0.0543,-0.0543,0,0,0.11,0.1163,0.1214,0.1301,0.1333,0.1408,0.1475,0.1691,0.1753,0.1801,0.1665,0.145,0.0969,0.0476,0.0039,-0.0246,-0.0235,-0.0289,-0.0164,-0.0046,-0.0027,-0.0309,-0.0315,0,0,0,0,0]}],[{"header":{"parameterUnit":"m.s-1","parameterCategory":2,"la1":30.2991,"la2":30.254,"lo1":-89.0895,"lo2":-89.0444,"dy":0.0017,"dx":0.0017,"nx":28,"ny":28,"refTime":"2024-08-14T09:00:00:Z","depth":"4","parameterNumber":2,"parameterNumberName":"U-component_of_CURRENTS"},"data":[0,0,0,0,0,0,0,0,0,0,0,0,0,0,0,0,0,0,0,0,0,0,0,0,0,0,0,0,0,0,0,0,0,0,0,0,0,0,0,0,0,0,0,0,0,0,0,0,0,0,0,0,0,0,0,0,0,0,0.09,0.0901,0,0.0934,0.0934,0.0933,0.1014,0.1017,0.1019,0.1022,0.1146,0.1147,0.1148,0,0,0,0,0,0,0,0,0,0,0,0,0,0.0797,0.0798,0.09,0.0901,0.0902,0.0934,0.0934,0.0933,0.1014,0.1017,0.102,0.1023,0.1145,0.1146,0.1148,0,0,0,0,0,0,0,0,0,0,0,0,0,0.0829,0.0799,0.09,0.0953,0.0958,0.0934,0.0934,0.0933,0.1013,0.1017,0.1021,0.1024,0.1145,0.1146,0.1148,0.1083,0,0,0.1152,0.1153,0,0,0,0,0,0,0,0,0.0828,0.0832,0.0944,0.0949,0.0955,0.0981,0.0943,0.0991,0.1012,0.0983,0.1022,0.1026,0.1102,0.1107,0.1092,0.1089,0.1095,0.1153,0.1154,0.1154,0.1155,0,0,0,0,0,0,0,0.0825,0.0831,0.0905,0.0945,0.0952,0.0938,0.0947,0.0951,0.1017,0.0986,0.0994,0.101,0.1105,0.109,0.1096,0.1096,0.1153,0.1154,0.1155,0.1155,0.1232,0.1233,0,0,0,0,0,0,0.084,0.0829,0.0904,0.0907,0.0909,0.0938,0.0947,0.0962,0.1015,0.1028,0.1007,0.1014,0.1086,0.1094,0.1101,0.1199,0.1154,0.1156,0.1156,0.1231,0.1232,0.1233,0,0,0,0,0,0,0.0837,0.0846,0.0903,0.0875,0.0883,0.0938,0.0952,0.0961,0.1003,0.1031,0.1046,0.1048,0.1089,0.1099,0.1155,0.1198,0.1156,0.1158,0.1229,0.1231,0.1233,0.1286,0,0,0,0,0,0,0.0834,0.0844,0.0872,0.0876,0.0886,0.0922,0.095,0.0959,0.1008,0.1018,0.1069,0.1081,0.1092,0.1152,0.1156,0.12,0.1159,0.1228,0.123,0.1232,0.1282,0.1289,0.1294,0,0,0,0,0,0.083,0.0849,0.0873,0.0883,0.0918,0.0923,0.0925,0.097,0.1007,0.102,0.1067,0.1083,0.1169,0.1154,0.1158,0.1203,0.1227,0.123,0.1232,0.128,0.1288,0.1294,0,0,0,0,0,0,0.0815,0.0859,0.0886,0.0919,0.0939,0.0941,0.0968,0.0989,0.1028,0.1059,0.1086,0.11,0.1149,0.1169,0.1151,0.1231,0.1204,0.1207,0.1239,0.1246,0.1252,0.1314,0.116,0,0,0,0,0,0.0824,0.0848,0.0884,0.0905,0.0931,0.0954,0.097,0.0996,0.1026,0.1049,0.1097,0.114,0.1147,0.1197,0.1196,0.1252,0.1235,0.1286,0.1292,0.1297,0.135,0.1315,0.1323,0.1242,0.1242,0.1242,0,0,0.0824,0.0848,0.0865,0.0903,0.0928,0.0964,0.0973,0.1007,0.1045,0.1054,0.1143,0.1143,0.1154,0.1201,0.1231,0.1245,0.1307,0.13,0.1305,0.1356,0.1318,0.1326,0.1333,0.1243,0.1243,0.1243,0,0,0.0818,0.0862,0.089,0.0915,0.0965,0.0983,0.1008,0.1052,0.1092,0.1146,0.1155,0.1206,0.1244,0.1274,0.1283,0.1327,0.1305,0.1327,0.1453,0.1417,0.1423,0.1429,0.1395,0.1397,0.1372,0.1372,0.1372,0,0.0826,0.0863,0.0894,0.0929,0.0961,0.1005,0.1044,0.1076,0.1135,0.1165,0.1195,0.1254,0.128,0.1326,0.1373,0.1345,0.1319,0.1421,0.1424,0.143,0.1435,0.1399,0.1401,0.1375,0.1374,0.1374,0.1374,0,0.0841,0.0888,0.0906,0.0974,0.1004,0.1039,0.1099,0.116,0.1219,0.124,0.1306,0.1341,0.1396,0.1403,0.1425,0.1482,0.1445,0.1396,0.1405,0.1446,0.1405,0.1406,0.1379,0.1378,0.1377,0.1376,0,0,0.0816,0.0906,0.0914,0.0963,0.1036,0.1062,0.1142,0.1205,0.1262,0.1336,0.1405,0.1466,0.1504,0.1524,0.1544,0.1577,0.1597,0.1552,0.1549,0.152,0.152,0.1468,0.1463,0.1538,0.1539,0.154,0.1468,0,0.0829,0.089,0.0934,0.1013,0.1062,0.1133,0.118,0.124,0.1313,0.1394,0.1449,0.1505,0.1537,0.1591,0.1625,0.159,0.1608,0.1622,0.1488,0.1485,0.1434,0.1466,0.1543,0.1469,0.1469,0.1469,0.1469,0,0.0836,0.0877,0.0944,0.1037,0.1066,0.1124,0.1233,0.1293,0.1388,0.1432,0.1528,0.1564,0.1668,0.1668,0.1672,0.1677,0.1639,0.1607,0.16,0.1551,0.1437,0.1425,0.147,0.147,0.147,0.147,0.147,0,0.0785,0.0892,0.0944,0.0978,0.1079,0.1145,0.1223,0.1311,0.1374,0.15,0.1551,0.1623,0.169,0.1665,0.1676,0.1667,0.1637,0.1575,0.148,0.1473,0.1516,0.1511,0.1559,0.1559,0.1559,0.1559,0.1559,0,0.0767,0.0819,0.0944,0.0971,0.1051,0.1138,0.1239,0.1317,0.1432,0.1486,0.1597,0.1643,0.17,0.1707,0.1674,0.1602,0.1618,0.153,0.1464,0.1535,0.1533,0.1514,0.151,0.1557,0.1557,0.1558,0.1558,0,0.0704,0.0773,0.0852,0.0978,0.1031,0.1103,0.1274,0.1335,0.1443,0.1539,0.159,0.1677,0.1669,0.1691,0.1641,0.1592,0.1519,0.1476,0.158,0.1515,0.1374,0.1373,0.1351,0.1349,0.1348,0.1346,0.1345,0,0.0675,0.0707,0.085,0.0908,0.0987,0.1117,0.1181,0.1326,0.1392,0.1524,0.1543,0.1617,0.165,0.1533,0.1549,0.147,0.145,0.1414,0.1411,0.1422,0.1359,0.1361,0.1363,0.1342,0.1341,0.1341,0.134,0,0.0622,0.0679,0.0735,0.0849,0.0951,0.1047,0.1175,0.1211,0.1348,0.1466,0.1476,0.1499,0.1486,0.146,0.1441,0.1372,0.1446,0.1394,0.1397,0.1393,0.1409,0.1349,0.1353,0.1334,0.1335,0.1336,0.1336,0,0.0583,0.0609,0.0684,0.0781,0.089,0.0943,0.1029,0.1108,0.1183,0.1345,0.1328,0.1378,0.1455,0.1404,0.136,0.1334,0.13,0.1259,0.1268,0.1275,0.1291,0.1302,0.1162,0,0,0,0,0,0.0548,0.0557,0.0622,0.0703,0.0804,0.087,0.0991,0.1069,0.1205,0.1187,0.1269,0.1252,0.1246,0.1258,0.1207,0.1297,0.1286,0.1235,0.124,0.1299,0.1307,0.1336,0,0,0,0,0,0,0.0517,0.0562,0.0573,0.0604,0.0661,0.075,0.0824,0.092,0.0921,0.1067,0.1053,0.1188,0.117,0.1249,0.1181,0.119,0.1173,0.1286,0.1283,0.1295,0.1302,0.1308,0.1341,0,0,0,0,0]},{"header":{"parameterUnit":"m.s-1","parameterCategory":2,"la1":30.2991,"la2":30.254,"lo1":-89.0895,"lo2":-89.0444,"dy":0.0017,"dx":0.0017,"nx":28,"ny":28,"refTime":"2024-08-14T09:00:00:Z","depth":"4","parameterNumber":3,"parameterNumberName":"V-component_of_CURRENTS"},"data":[0,0,0,0,0,0,0,0,0,0,0,0,0,0,0,0,0,0,0,0,0,0,0,0,0,0,0,0,0,0,0,0,0,0,0,0,0,0,0,0,0,0,0,0,0,0,0,0,0,0,0,0,0,0,0,0,0,0,0.0174,0.0174,0,0.0082,0.0081,0.0079,0.0051,0.0052,0.0053,0.0053,-0.0046,-0.0049,-0.0052,0,0,0,0,0,0,0,0,0,0,0,0,0,0.0245,0.0244,0.0175,0.0174,0.0173,0.0082,0.0081,0.0079,0.0051,0.0052,0.0053,0.0054,-0.0045,-0.0049,-0.0052,0,0,0,0,0,0,0,0,0,0,0,0,0,0.0188,0.0244,0.0175,0.0149,0.0146,0.0082,0.0081,0.0079,0.0051,0.0052,0.0053,0.0054,-0.0043,-0.0048,-0.0053,-0.0102,0,0,-0.0068,-0.007,0,0,0,0,0,0,0,0,0.0191,0.0185,0.0154,0.0151,0.0147,0.0081,0.0069,0.0019,0.0051,0.0085,0.0053,0.0054,-0.0004,-0.0012,-0.0034,-0.0107,-0.0111,-0.0068,-0.0071,-0.0073,-0.0075,0,0,0,0,0,0,0,0.0196,0.0189,0.0136,0.0153,0.0149,0.0114,0.0108,0.0059,0.0035,0.0082,0.0081,0.0073,-0.0006,-0.0029,-0.0036,-0.0112,-0.0068,-0.0072,-0.0075,-0.0077,-0.024,-0.0242,0,0,0,0,0,0,0.0214,0.0193,0.0139,0.0133,0.0174,0.0113,0.0105,0.01,0.0036,0.0027,0.0072,0.0072,-0.0021,-0.0031,-0.004,-0.0099,-0.0073,-0.0078,-0.0081,-0.0239,-0.0241,-0.0242,0,0,0,0,0,0,0.0216,0.021,0.0143,0.0162,0.0152,0.0111,0.0105,0.0097,0.0079,0.0028,0.002,0.0063,-0.0021,-0.0033,-0.0082,-0.0103,-0.008,-0.0084,-0.0237,-0.0239,-0.0241,-0.022,0,0,0,0,0,0,0.0218,0.0211,0.0213,0.0164,0.0151,0.0108,0.0104,0.0095,0.0073,0.0072,0.0017,0.0008,-0.0021,-0.0074,-0.0086,-0.011,-0.0088,-0.0235,-0.0238,-0.0241,-0.0219,-0.0221,-0.0223,0,0,0,0,0,0.0221,0.0216,0.0214,0.0207,0.0156,0.0108,0.0097,0.007,0.0072,0.0059,0.0024,0.001,-0.01,-0.0079,-0.0093,-0.0118,-0.0234,-0.0237,-0.024,-0.0218,-0.0221,-0.0223,0,0,0,0,0,0,0.0242,0.0211,0.0208,0.0194,0.0158,0.0104,0.009,0.0072,0.0032,0.0034,-0.0007,-0.0019,-0.0073,-0.0101,-0.0077,-0.0175,-0.0171,-0.0177,-0.0149,-0.0152,-0.0154,-0.0138,-0.0092,0,0,0,0,0,0.025,0.0241,0.0203,0.019,0.0177,0.0136,0.0114,0.0094,0.0053,0.0037,0.0,-0.0046,-0.0101,-0.0126,-0.0176,-0.0228,-0.025,-0.0255,-0.0257,-0.0259,-0.0257,-0.0314,-0.0321,-0.0253,-0.0253,-0.0252,0,0,0.0254,0.0236,0.0231,0.0194,0.0167,0.0142,0.0125,0.0092,0.0066,0.0031,-0.0011,-0.0055,-0.0117,-0.0175,-0.0201,-0.0198,-0.0289,-0.0263,-0.0263,-0.0261,-0.0318,-0.0325,-0.033,-0.0255,-0.0254,-0.0254,0,0,0.0253,0.0243,0.0237,0.021,0.0174,0.0145,0.014,0.0091,0.0067,0.0017,-0.0017,-0.007,-0.0144,-0.0195,-0.0231,-0.0278,-0.0298,-0.0295,-0.0292,-0.0348,-0.0354,-0.0359,-0.0383,-0.0391,-0.0295,-0.0295,-0.0295,0,0.0261,0.0249,0.0224,0.0207,0.0188,0.0152,0.0134,0.0096,0.0036,0.0008,0.001,-0.0112,-0.0158,-0.0241,-0.0255,-0.0282,-0.0303,-0.0273,-0.0349,-0.0355,-0.036,-0.0384,-0.0392,-0.0294,-0.0295,-0.0295,-0.0295,0,0.0252,0.0244,0.0235,0.021,0.0181,0.0158,0.0111,0.008,0.0053,0.001,-0.0065,-0.0129,-0.0195,-0.0229,-0.0256,-0.0328,-0.0325,-0.0342,-0.0334,-0.0365,-0.0389,-0.0398,-0.0294,-0.0294,-0.0294,-0.0294,0,0,0.0265,0.0238,0.0236,0.0233,0.0183,0.016,0.0114,0.0058,0.0031,-0.0031,-0.0078,-0.0176,-0.0198,-0.024,-0.0285,-0.0339,-0.0394,-0.035,-0.0354,-0.0359,-0.0494,-0.0453,-0.0459,-0.042,-0.0422,-0.0423,-0.0488,0,0.0268,0.0255,0.0231,0.0213,0.0203,0.0158,0.0111,0.0054,0.0011,-0.0043,-0.0122,-0.018,-0.0207,-0.0231,-0.0291,-0.0376,-0.0419,-0.0373,-0.0476,-0.0479,-0.0427,-0.0469,-0.0429,-0.0495,-0.0497,-0.0499,-0.05,0,0.0269,0.0261,0.0252,0.022,0.0209,0.0195,0.0136,0.0092,0.0002,-0.004,-0.0102,-0.0153,-0.0245,-0.0254,-0.0395,-0.0362,-0.0419,-0.0478,-0.0482,-0.0458,-0.0456,-0.0465,-0.0517,-0.0515,-0.0514,-0.0513,-0.0512,0,0.0295,0.0276,0.0277,0.0266,0.0217,0.0209,0.0184,0.0104,0.0077,-0.0015,-0.0035,-0.0157,-0.0198,-0.0306,-0.041,-0.0406,-0.0557,-0.0568,-0.0583,-0.058,-0.0603,-0.0597,-0.0659,-0.0659,-0.0659,-0.0658,-0.0658,0,0.0304,0.0305,0.0304,0.0304,0.03,0.0253,0.024,0.0185,0.0127,0.01,-0.0005,-0.0048,-0.0211,-0.0308,-0.0412,-0.0519,-0.0555,-0.0587,-0.0602,-0.0591,-0.0583,-0.0608,-0.0601,-0.0661,-0.066,-0.066,-0.0659,0,0.0323,0.0319,0.0327,0.0313,0.0318,0.032,0.0315,0.0297,0.0235,0.0208,0.0187,0.0037,-0.0105,-0.0254,-0.044,-0.0498,-0.0624,-0.0648,-0.0607,-0.0619,-0.0606,-0.0598,-0.0676,-0.0676,-0.0675,-0.0674,-0.0674,0,0.0326,0.0336,0.0358,0.0378,0.0387,0.04,0.0397,0.0353,0.0351,0.026,0.0249,0.0111,0.0003,-0.0226,-0.0402,-0.0596,-0.0613,-0.0658,-0.0652,-0.0605,-0.0612,-0.0605,-0.0598,-0.0673,-0.0673,-0.0673,-0.0673,0,0.0326,0.0346,0.0351,0.0409,0.0441,0.0456,0.0476,0.049,0.0432,0.0404,0.0309,0.0172,0.001,-0.0205,-0.0349,-0.0492,-0.0629,-0.0652,-0.0655,-0.0649,-0.0602,-0.0608,-0.0602,-0.0671,-0.0671,-0.0671,-0.0671,0,0.033,0.0342,0.0369,0.0417,0.046,0.0486,0.0498,0.0496,0.0482,0.0421,0.0388,0.0189,0.0073,-0.0151,-0.0297,-0.0427,-0.0456,-0.0476,-0.0488,-0.0492,-0.0423,-0.0335,-0.034,0,0,0,0,0,0.0328,0.034,0.0375,0.0414,0.0464,0.0498,0.0521,0.0526,0.0521,0.0482,0.0444,0.0293,0.0055,-0.0084,-0.0204,-0.0299,-0.0491,-0.0443,-0.0522,-0.0659,-0.0661,-0.0609,0,0,0,0,0,0,0.0316,0.0348,0.0358,0.04,0.0451,0.0491,0.0518,0.0517,0.0494,0.0478,0.034,0.0299,0.0046,0.0136,-0.0195,-0.0242,-0.0299,-0.0556,-0.0558,-0.0658,-0.066,-0.0662,-0.0608,0,0,0,0,0]}]]